GFSMA_prec_precacc_159.txt.gz
Total_Precipitation_Accumulation
0.73 0.46 0.28 0.34 0.39 0.45 0.68 0.92 1.20 1.20 1.23 1.17 1.26 1.16 0.94 0.74 0.85 1.00 1.09 1.42 1.30 1.11 1.12 1.03 0.78 0.83 0.64 0.57 0.59 0.57 0.45 0.33 0.35 0.39 0.33 0.27 0.29 0.31 0.27 0.22 0.24 0.20 0.26
0.70 0.57 0.38 0.36 0.35 0.39 0.55 0.80 1.16 1.27 1.34 1.52 1.29 0.96 0.94 0.67 0.67 1.06 1.75 1.84 1.42 1.36 1.13 1.26 1.44 1.25 0.97 0.86 0.79 0.68 0.50 0.36 0.30 0.28 0.32 0.31 0.31 0.28 0.23 0.20 0.24 0.30 0.27
0.66 0.71 0.69 0.63 0.51 0.47 0.56 0.84 1.12 1.26 1.05 1.00 1.09 1.32 1.55 1.46 0.89 0.59 0.73 0.86 0.91 0.95 1.04 1.37 1.55 1.74 1.86 1.60 1.18 0.82 0.69 0.42 0.28 0.23 0.22 0.21 0.22 0.22 0.23 0.19 0.19 0.29 0.37
1.11 0.93 0.70 0.77 0.89 0.77 0.68 0.82 1.06 1.61 1.49 1.09 0.74 0.75 1.03 1.16 1.04 1.09 0.82 0.66 0.64 0.79 1.17 1.01 1.77 2.43 2.27 1.62 1.07 0.84 0.51 0.42 0.37 0.41 0.44 0.32 0.26 0.27 0.25 0.21 0.25 0.42 0.43
1.72 1.33 1.24 1.33 1.27 1.29 1.36 1.60 1.80 1.93 1.54 1.22 0.88 0.66 0.62 0.59 0.47 0.43 0.45 0.46 0.45 0.44 0.44 0.55 0.78 1.06 0.93 0.87 0.71 0.57 0.45 0.34 0.33 0.35 0.41 0.39 0.34 0.33 0.31 0.35 0.37 0.39 0.43
1.05 1.14 1.36 1.60 1.59 1.46 1.19 0.99 1.09 1.24 1.23 1.08 0.98 0.69 0.62 0.43 0.32 0.23 0.24 0.34 0.37 0.52 0.51 0.42 0.57 0.63 0.58 0.57 0.62 0.59 0.49 0.47 0.43 0.36 0.37 0.37 0.39 0.37 0.36 0.36 0.44 0.55 0.51
0.94 0.84 1.13 1.97 2.14 1.36 0.90 0.94 1.21 1.21 1.09 0.96 1.31 1.03 0.74 0.48 0.33 0.22 0.18 0.25 0.26 0.32 0.63 0.66 0.48 0.56 0.68 0.47 0.38 0.47 0.57 0.69 0.70 0.63 0.61 0.54 0.47 0.38 0.33 0.31 0.30 0.37 0.46
0.76 0.88 0.69 0.82 1.40 1.71 1.55 1.09 1.08 1.35 1.24 1.18 1.29 1.23 1.10 1.09 0.65 0.36 0.33 0.22 0.20 0.29 0.27 0.42 0.53 0.42 0.53 0.76 0.38 0.31 0.58 0.82 0.88 0.90 1.07 1.07 0.81 0.59 0.46 0.35 0.28 0.26 0.24
0.75 0.79 0.74 0.67 0.81 1.47 1.55 1.17 0.82 0.95 1.34 1.30 1.19 1.16 1.10 0.76 0.54 0.34 0.34 0.26 0.21 0.20 0.23 0.22 0.25 0.30 0.30 0.56 0.83 0.43 0.30 0.62 0.90 0.99 1.02 1.28 1.42 0.83 0.56 0.45 0.37 0.34 0.27
0.95 0.80 0.92 0.96 0.83 0.81 1.15 1.14 0.92 0.84 1.33 1.21 1.74 1.18 0.76 0.71 0.96 0.74 0.53 0.46 0.43 0.28 0.21 0.26 0.23 0.21 0.25 0.28 0.44 0.64 0.32 0.18 0.39 0.66 1.09 1.38 1.35 1.13 0.81 0.67 0.60 0.46 0.41
1.17 1.18 1.13 1.25 1.22 1.29 0.96 1.45 1.37 1.26 1.39 1.08 0.64 0.95 1.20 1.04 1.26 1.36 0.93 0.59 0.67 0.47 0.39 0.27 0.32 0.36 0.38 0.46 0.40 0.31 0.33 0.36 0.36 0.43 0.50 0.71 1.06 1.04 0.84 0.76 0.84 0.82 0.74
1.24 1.22 1.20 1.18 1.06 1.10 1.25 1.45 1.81 1.77 1.79 1.56 1.15 1.06 1.00 0.98 0.75 1.13 1.26 0.86 0.78 0.64 0.60 0.74 0.60 0.58 0.56 0.62 0.61 0.52 0.42 0.49 0.57 0.44 0.33 0.52 0.78 1.01 1.11 0.96 0.75 0.78 0.89
1.46 0.97 1.05 1.04 0.95 0.78 0.88 1.19 1.61 1.80 2.14 2.23 2.03 1.61 1.25 1.09 1.06 1.15 1.21 1.14 1.05 0.70 0.66 0.59 0.51 0.58 0.68 0.84 0.82 0.84 0.80 0.72 0.75 0.83 0.66 0.65 0.69 0.82 1.18 1.17 0.99 0.87 0.91
1.02 0.79 0.96 1.09 1.06 1.07 1.06 0.97 1.13 1.15 1.25 1.64 2.36 2.90 2.90 2.21 1.81 1.86 1.93 2.10 2.10 1.67 1.30 0.58 0.37 0.39 0.35 0.52 0.65 1.08 1.07 0.97 0.96 1.00 0.95 0.81 0.71 0.69 0.80 1.22 1.61 1.49 1.13
1.05 0.98 1.10 1.13 1.16 1.09 1.07 1.07 1.00 1.03 1.08 1.12 1.12 1.33 1.65 1.83 1.82 1.68 1.78 2.11 2.68 2.37 1.56 0.89 0.51 0.37 0.35 0.37 0.50 0.75 0.75 0.84 0.94 0.87 0.95 0.96 0.94 0.93 0.88 0.89 1.05 1.35 1.53
1.09 1.25 1.32 1.25 1.27 1.31 1.31 1.29 1.20 1.13 1.23 1.12 0.99 0.95 1.01 1.07 1.11 1.13 1.24 1.59 2.09 2.18 1.72 0.87 0.68 0.50 0.57 0.57 0.66 0.66 0.73 0.92 0.71 0.78 0.81 0.96 1.14 1.08 0.89 0.84 0.91 1.04 1.22
1.38 1.32 1.39 1.60 1.52 1.65 1.65 1.63 1.48 1.33 1.32 1.28 1.21 1.15 0.92 0.87 1.02 1.26 1.40 1.50 1.72 1.94 1.91 1.07 0.98 0.96 0.95 0.88 0.69 0.60 0.66 0.70 0.75 0.70 0.62 0.68 0.85 1.03 1.30 1.42 1.21 1.02 0.98
1.09 1.04 1.21 1.30 1.25 1.46 1.66 1.65 1.54 1.40 1.39 1.55 1.66 1.73 1.55 1.37 1.34 1.33 1.56 1.45 1.42 1.52 1.54 1.21 0.95 0.79 0.73 0.75 0.73 0.72 0.73 0.59 0.43 0.58 0.69 0.63 0.75 0.92 1.04 1.35 1.89 1.86 1.54
1.51 1.46 1.65 1.72 1.45 1.33 1.57 1.64 1.63 1.46 1.48 1.58 1.46 1.46 1.38 1.38 1.47 1.37 1.46 1.60 1.34 1.13 1.30 1.52 1.19 0.98 0.86 0.75 0.75 0.73 0.72 0.78 0.68 0.74 0.81 0.79 0.71 0.68 0.91 1.07 1.25 1.44 1.46
1.09 1.21 1.16 1.22 1.23 1.17 1.25 1.44 1.60 1.69 1.40 1.40 1.41 1.44 1.53 1.36 1.18 1.04 1.01 1.05 1.05 1.06 1.04 1.22 1.37 1.30 1.24 1.14 1.20 1.01 0.85 0.81 0.91 0.87 0.92 0.85 0.83 0.83 0.93 1.09 1.15 1.05 1.01
1.01 0.94 0.77 0.88 0.97 1.09 1.43 1.36 1.42 1.58 1.54 1.38 1.24 1.22 1.23 1.52 1.48 1.29 1.19 1.22 1.14 1.25 1.31 1.36 1.38 1.17 1.18 1.21 1.15 1.15 1.09 1.15 1.17 0.93 0.88 0.95 0.93 0.99 1.07 1.20 1.18 1.18 1.16
1.04 1.24 1.03 1.09 1.36 1.43 1.74 1.72 1.62 1.72 1.61 1.50 1.40 1.26 1.40 1.57 1.50 1.67 1.51 1.36 1.35 1.42 1.42 1.30 1.29 1.29 1.10 0.96 0.96 1.09 1.40 1.55 1.54 1.19 1.27 1.44 1.44 1.53 1.45 1.45 1.86 1.57 1.34
1.40 1.29 1.51 1.43 1.33 1.30 1.73 1.74 1.86 1.66 1.99 1.89 1.76 1.55 1.49 1.54 1.69 1.48 1.75 1.75 1.75 1.83 1.65 1.41 1.44 1.39 1.33 1.20 1.27 1.49 1.59 1.68 1.75 1.47 1.59 1.92 1.75 1.79 1.67 1.79 2.08 1.61 1.57
1.49 1.22 1.20 1.16 1.14 1.71 1.79 2.15 2.44 2.10 1.81 1.87 2.00 1.90 1.78 1.67 1.86 1.83 1.72 1.79 1.82 1.97 2.12 2.16 2.22 2.41 2.44 2.33 2.39 2.47 2.54 2.66 2.68 2.38 2.08 2.16 1.83 1.75 1.65 1.62 2.10 1.48 1.38
1.94 1.70 1.31 1.19 1.23 1.21 1.29 1.14 1.33 1.53 2.05 2.36 2.29 2.32 2.42 2.35 3.04 2.95 2.51 2.68 2.84 3.01 3.48 3.44 3.31 3.27 3.14 2.89 2.56 2.46 2.88 2.87 3.01 2.62 2.23 2.18 2.09 2.05 2.03 1.89 1.73 1.67 1.29
1.52 1.50 1.49 1.28 1.43 1.27 1.64 1.35 1.10 0.74 0.99 1.31 1.64 1.98 2.60 2.26 2.67 2.46 2.22 2.18 2.76 3.24 3.04 3.14 3.24 3.08 2.90 2.83 3.02 2.76 2.51 2.55 2.57 2.73 2.31 2.31 2.19 2.17 2.36 1.99 1.61 1.43 1.28

GFSMA_prec_precacc_162.txt.gz
Total_Precipitation_Accumulation
0.73 0.46 0.28 0.34 0.39 0.45 0.68 0.92 1.20 1.20 1.23 1.17 1.26 1.16 0.94 0.74 0.85 1.00 1.09 1.42 1.30 1.11 1.12 1.03 0.78 0.84 0.66 0.58 0.60 0.59 0.46 0.34 0.36 0.39 0.33 0.27 0.29 0.31 0.28 0.25 0.24 0.20 0.26
0.70 0.57 0.38 0.36 0.35 0.39 0.55 0.80 1.16 1.27 1.34 1.52 1.29 0.96 0.94 0.67 0.67 1.06 1.75 1.84 1.42 1.36 1.13 1.26 1.44 1.26 1.02 0.90 0.82 0.70 0.50 0.36 0.32 0.29 0.33 0.31 0.31 0.30 0.25 0.22 0.25 0.30 0.27
0.66 0.71 0.69 0.63 0.51 0.47 0.56 0.84 1.12 1.26 1.05 1.00 1.09 1.32 1.55 1.46 0.89 0.59 0.73 0.86 0.91 0.95 1.04 1.37 1.55 1.74 1.88 1.66 1.24 0.89 0.73 0.44 0.31 0.27 0.24 0.21 0.22 0.22 0.23 0.21 0.22 0.29 0.37
1.11 0.93 0.70 0.77 0.89 0.77 0.68 0.82 1.06 1.61 1.49 1.09 0.74 0.75 1.03 1.16 1.04 1.09 0.82 0.66 0.64 0.79 1.17 1.01 1.77 2.43 2.27 1.64 1.13 0.92 0.58 0.48 0.45 0.49 0.52 0.37 0.27 0.27 0.25 0.23 0.31 0.45 0.44
1.72 1.33 1.24 1.33 1.27 1.29 1.36 1.60 1.80 1.93 1.54 1.22 0.88 0.66 0.62 0.59 0.47 0.43 0.45 0.46 0.45 0.44 0.44 0.55 0.78 1.06 0.93 0.87 0.74 0.62 0.51 0.40 0.38 0.47 0.57 0.52 0.40 0.36 0.34 0.39 0.46 0.50 0.48
1.05 1.14 1.36 1.60 1.59 1.46 1.19 0.99 1.09 1.24 1.23 1.08 0.98 0.69 0.62 0.43 0.32 0.23 0.24 0.34 0.37 0.52 0.51 0.42 0.57 0.63 0.58 0.57 0.62 0.62 0.53 0.54 0.50 0.46 0.49 0.47 0.50 0.49 0.47 0.44 0.56 0.69 0.63
0.94 0.84 1.13 1.97 2.14 1.36 0.90 0.94 1.21 1.21 1.09 0.96 1.31 1.03 0.74 0.48 0.33 0.22 0.18 0.25 0.26 0.32 0.63 0.66 0.48 0.56 0.68 0.48 0.39 0.49 0.62 0.76 0.79 0.70 0.71 0.62 0.52 0.47 0.46 0.46 0.42 0.70 0.81
0.76 0.88 0.69 0.82 1.40 1.71 1.55 1.09 1.08 1.35 1.24 1.18 1.29 1.23 1.10 1.09 0.65 0.36 0.33 0.22 0.20 0.29 0.27 0.42 0.53 0.42 0.53 0.77 0.40 0.32 0.61 0.88 0.96 0.97 1.18 1.14 0.83 0.65 0.59 0.49 0.40 0.43 0.94
0.75 0.79 0.74 0.67 0.81 1.47 1.55 1.17 0.82 0.95 1.35 1.30 1.19 1.16 1.11 0.76 0.54 0.34 0.34 0.26 0.21 0.20 0.23 0.23 0.26 0.30 0.30 0.58 0.88 0.45 0.30 0.64 0.94 1.05 1.10 1.41 1.48 0.91 0.64 0.53 0.47 0.42 0.45
0.95 0.80 0.92 0.96 0.83 0.81 1.15 1.14 0.92 0.84 1.33 1.22 1.75 1.18 0.77 0.72 0.97 0.74 0.53 0.46 0.43 0.28 0.22 0.29 0.27 0.24 0.27 0.30 0.46 0.64 0.33 0.18 0.41 0.72 1.15 1.43 1.40 1.17 0.88 0.75 0.65 0.51 0.46
1.17 1.18 1.13 1.25 1.22 1.29 0.96 1.45 1.37 1.26 1.39 1.08 0.64 0.95 1.20 1.04 1.26 1.37 0.93 0.60 0.68 0.49 0.41 0.34 0.46 0.40 0.39 0.47 0.42 0.32 0.34 0.36 0.36 0.43 0.51 0.73 1.08 1.08 0.88 0.86 0.98 0.91 0.80
1.24 1.22 1.20 1.18 1.06 1.10 1.25 1.45 1.81 1.78 1.79 1.56 1.15 1.07 1.01 0.99 0.76 1.14 1.28 0.87 0.79 0.70 0.64 0.87 0.77 0.68 0.60 0.62 0.64 0.54 0.43 0.50 0.57 0.45 0.35 0.54 0.80 1.03 1.15 1.03 0.87 0.96 1.06
1.46 0.97 1.05 1.04 0.95 0.78 0.88 1.19 1.61 1.80 2.14 2.23 2.03 1.62 1.25 1.10 1.07 1.16 1.23 1.15 1.06 0.73 0.73 0.70 0.72 0.74 0.78 0.88 0.84 0.88 0.83 0.73 0.76 0.84 0.68 0.69 0.73 0.86 1.21 1.20 1.08 1.03 1.14
1.02 0.79 0.96 1.09 1.06 1.07 1.06 0.97 1.13 1.15 1.25 1.64 2.36 2.90 2.91 2.21 1.81 1.87 1.95 2.11 2.11 1.70 1.40 0.69 0.45 0.47 0.49 0.60 0.74 1.15 1.10 1.01 0.99 1.01 0.96 0.83 0.73 0.72 0.83 1.24 1.63 1.55 1.25
1.05 0.98 1.10 1.13 1.16 1.09 1.07 1.07 1.00 1.03 1.08 1.12 1.12 1.33 1.65 1.83 1.83 1.69 1.79 2.12 2.70 2.41 1.69 1.14 0.58 0.40 0.40 0.47 0.62 0.83 0.80 0.89 0.99 0.93 0.99 0.98 0.97 0.97 0.92 0.91 1.07 1.37 1.56
1.09 1.25 1.32 1.25 1.27 1.31 1.31 1.29 1.20 1.13 1.23 1.12 0.99 0.95 1.01 1.08 1.11 1.13 1.25 1.60 2.11 2.23 1.82 1.05 0.79 0.52 0.61 0.63 0.73 0.73 0.80 0.99 0.76 0.80 0.85 1.00 1.19 1.14 0.94 0.90 0.95 1.09 1.25
1.38 1.32 1.39 1.60 1.52 1.65 1.65 1.63 1.48 1.33 1.32 1.28 1.21 1.15 0.92 0.87 1.03 1.26 1.41 1.51 1.73 1.99 2.01 1.17 1.03 0.97 0.96 0.92 0.74 0.63 0.75 0.77 0.78 0.73 0.65 0.69 0.86 1.06 1.34 1.46 1.25 1.06 1.01
1.09 1.04 1.21 1.30 1.25 1.46 1.66 1.65 1.54 1.40 1.39 1.55 1.66 1.73 1.55 1.37 1.34 1.34 1.57 1.46 1.45 1.60 1.63 1.26 0.98 0.81 0.76 0.80 0.84 0.79 0.77 0.69 0.59 0.62 0.72 0.69 0.77 0.93 1.05 1.36 1.90 1.88 1.57
1.51 1.46 1.65 1.72 1.45 1.33 1.57 1.64 1.63 1.46 1.48 1.58 1.46 1.46 1.38 1.38 1.47 1.38 1.47 1.61 1.36 1.15 1.34 1.57 1.25 1.03 0.90 0.82 0.83 0.84 0.80 0.82 0.76 0.84 0.86 0.84 0.77 0.71 0.92 1.07 1.26 1.45 1.47
1.09 1.21 1.16 1.22 1.23 1.17 1.25 1.44 1.60 1.69 1.40 1.40 1.41 1.44 1.53 1.37 1.18 1.04 1.02 1.06 1.08 1.10 1.09 1.26 1.42 1.36 1.29 1.22 1.27 1.08 0.90 0.86 0.95 0.90 0.95 0.89 0.87 0.84 0.94 1.09 1.15 1.05 1.01
1.01 0.94 0.77 0.88 0.97 1.09 1.43 1.36 1.42 1.58 1.54 1.38 1.24 1.22 1.23 1.52 1.48 1.30 1.19 1.23 1.16 1.28 1.35 1.41 1.44 1.26 1.24 1.28 1.23 1.21 1.15 1.21 1.21 0.95 0.90 0.96 0.94 0.99 1.07 1.20 1.18 1.18 1.16
1.04 1.24 1.03 1.09 1.36 1.43 1.74 1.72 1.62 1.72 1.61 1.50 1.40 1.26 1.40 1.57 1.50 1.67 1.51 1.36 1.35 1.43 1.44 1.33 1.36 1.40 1.22 1.06 1.08 1.20 1.48 1.64 1.60 1.25 1.31 1.46 1.44 1.53 1.45 1.45 1.86 1.57 1.34
1.40 1.29 1.51 1.43 1.33 1.30 1.73 1.74 1.86 1.66 1.99 1.89 1.76 1.55 1.49 1.54 1.69 1.48 1.75 1.75 1.75 1.83 1.65 1.41 1.44 1.42 1.39 1.28 1.36 1.53 1.63 1.73 1.80 1.50 1.62 1.95 1.78 1.80 1.68 1.79 2.08 1.61 1.57
1.49 1.22 1.20 1.16 1.14 1.71 1.79 2.15 2.44 2.10 1.81 1.87 2.00 1.90 1.78 1.67 1.86 1.83 1.72 1.79 1.82 1.97 2.12 2.16 2.22 2.42 2.44 2.33 2.39 2.48 2.54 2.66 2.68 2.38 2.08 2.16 1.83 1.75 1.65 1.62 2.10 1.48 1.38
1.94 1.70 1.31 1.19 1.23 1.21 1.29 1.14 1.33 1.53 2.05 2.36 2.29 2.32 2.42 2.35 3.04 2.95 2.51 2.68 2.84 3.01 3.48 3.44 3.31 3.27 3.14 2.89 2.56 2.46 2.88 2.87 3.01 2.62 2.23 2.18 2.09 2.06 2.04 1.89 1.73 1.67 1.29
1.52 1.50 1.49 1.28 1.43 1.28 1.64 1.35 1.10 0.74 0.99 1.31 1.64 1.98 2.60 2.26 2.67 2.46 2.22 2.18 2.76 3.24 3.04 3.14 3.24 3.08 2.90 2.83 3.02 2.76 2.51 2.55 2.57 2.73 2.31 2.31 2.19 2.17 2.36 1.99 1.61 1.43 1.28

GFSMA_prec_precacc_168.txt.gz
Total_Precipitation_Accumulation
0.73 0.46 0.28 0.34 0.39 0.45 0.68 0.92 1.20 1.20 1.23 1.17 1.26 1.16 0.94 0.74 0.85 1.00 1.09 1.42 1.30 1.11 1.12 1.03 0.78 0.84 0.68 0.62 0.65 0.67 0.57 0.45 0.45 0.45 0.37 0.29 0.34 0.39 0.36 0.28 0.24 0.20 0.26
0.70 0.57 0.38 0.36 0.35 0.39 0.55 0.80 1.16 1.27 1.34 1.52 1.29 0.96 0.94 0.67 0.67 1.06 1.75 1.84 1.42 1.36 1.13 1.26 1.44 1.26 1.03 0.92 0.86 0.77 0.59 0.48 0.45 0.38 0.40 0.40 0.40 0.40 0.33 0.28 0.27 0.30 0.27
0.66 0.71 0.69 0.63 0.51 0.47 0.56 0.84 1.12 1.26 1.05 1.00 1.09 1.32 1.55 1.46 0.89 0.59 0.73 0.86 0.91 0.95 1.04 1.37 1.55 1.74 1.88 1.66 1.25 0.93 0.79 0.53 0.43 0.41 0.37 0.33 0.33 0.30 0.28 0.26 0.27 0.30 0.37
1.11 0.93 0.70 0.77 0.89 0.77 0.68 0.82 1.06 1.61 1.49 1.09 0.74 0.75 1.03 1.16 1.04 1.09 0.82 0.66 0.64 0.79 1.17 1.01 1.77 2.43 2.27 1.64 1.13 0.95 0.62 0.55 0.56 0.62 0.69 0.59 0.43 0.36 0.31 0.26 0.34 0.46 0.44
1.72 1.33 1.24 1.33 1.27 1.29 1.36 1.60 1.80 1.93 1.54 1.22 0.88 0.66 0.62 0.59 0.47 0.43 0.45 0.46 0.45 0.44 0.44 0.55 0.78 1.06 0.93 0.87 0.74 0.63 0.55 0.46 0.47 0.60 0.78 0.85 0.68 0.55 0.51 0.45 0.47 0.52 0.50
1.05 1.14 1.36 1.60 1.59 1.46 1.19 0.99 1.09 1.24 1.23 1.08 0.98 0.69 0.62 0.43 0.32 0.23 0.24 0.34 0.37 0.52 0.51 0.42 0.57 0.63 0.58 0.57 0.63 0.62 0.54 0.59 0.59 0.59 0.71 0.84 0.97 0.88 0.79 0.72 0.73 0.76 0.66
0.94 0.84 1.13 1.97 2.14 1.36 0.90 0.94 1.21 1.21 1.09 0.96 1.31 1.03 0.74 0.48 0.33 0.22 0.18 0.25 0.26 0.32 0.63 0.66 0.48 0.56 0.68 0.48 0.40 0.49 0.63 0.78 0.83 0.80 0.91 0.95 0.96 1.04 0.97 0.83 0.75 0.97 0.96
0.76 0.88 0.69 0.82 1.40 1.71 1.55 1.09 1.08 1.35 1.24 1.18 1.29 1.23 1.10 1.09 0.65 0.36 0.33 0.22 0.20 0.29 0.27 0.42 0.54 0.43 0.54 0.77 0.40 0.33 0.62 0.90 0.99 1.03 1.33 1.47 1.22 1.14 1.20 1.05 0.79 0.69 1.11
0.75 0.79 0.74 0.67 0.81 1.47 1.55 1.17 0.82 0.95 1.35 1.30 1.19 1.17 1.11 0.76 0.54 0.34 0.34 0.26 0.21 0.20 0.23 0.24 0.27 0.32 0.31 0.58 0.89 0.47 0.31 0.64 0.96 1.10 1.20 1.64 1.75 1.24 1.03 1.07 1.02 0.76 0.71
0.95 0.80 0.92 0.96 0.83 0.81 1.15 1.14 0.92 0.84 1.33 1.22 1.75 1.18 0.77 0.73 0.99 0.75 0.53 0.46 0.43 0.29 0.24 0.33 0.33 0.26 0.29 0.33 0.49 0.68 0.34 0.20 0.44 0.76 1.21 1.52 1.54 1.40 1.28 1.18 0.98 0.83 0.73
1.17 1.18 1.13 1.25 1.22 1.29 0.96 1.45 1.37 1.26 1.39 1.08 0.64 0.95 1.21 1.04 1.27 1.39 0.94 0.60 0.68 0.50 0.43 0.39 0.56 0.44 0.41 0.48 0.44 0.37 0.37 0.37 0.38 0.48 0.60 0.81 1.16 1.19 1.04 1.37 1.91 1.56 1.22
1.24 1.22 1.20 1.18 1.06 1.10 1.25 1.45 1.81 1.78 1.79 1.56 1.15 1.07 1.01 1.00 0.77 1.16 1.30 0.87 0.79 0.70 0.66 0.99 0.87 0.75 0.68 0.67 0.68 0.61 0.50 0.56 0.63 0.50 0.38 0.57 0.86 1.13 1.27 1.18 1.24 1.92 2.16
1.46 0.97 1.05 1.04 0.95 0.78 0.88 1.19 1.61 1.80 2.14 2.23 2.03 1.62 1.26 1.11 1.08 1.17 1.26 1.16 1.06 0.74 0.75 0.85 0.82 0.81 0.87 1.01 0.93 0.96 0.92 0.85 0.93 1.00 0.81 0.77 0.77 0.90 1.29 1.28 1.24 1.41 1.74
1.02 0.79 0.96 1.09 1.06 1.07 1.06 0.97 1.13 1.15 1.25 1.64 2.36 2.90 2.91 2.22 1.82 1.88 1.98 2.16 2.13 1.70 1.43 0.84 0.58 0.61 0.59 0.76 0.87 1.27 1.17 1.13 1.10 1.15 1.10 0.99 0.88 0.81 0.90 1.29 1.70 1.72 1.73
1.05 0.98 1.10 1.13 1.16 1.09 1.07 1.07 1.00 1.03 1.08 1.12 1.12 1.33 1.65 1.84 1.83 1.70 1.80 2.15 2.76 2.44 1.71 1.25 0.73 0.51 0.43 0.57 0.75 0.97 0.97 1.00 1.11 1.06 1.11 1.09 1.09 1.10 1.03 0.98 1.14 1.45 1.68
1.09 1.25 1.32 1.25 1.27 1.31 1.31 1.29 1.20 1.13 1.23 1.12 0.99 0.95 1.01 1.08 1.12 1.14 1.26 1.61 2.13 2.29 1.86 1.14 0.90 0.61 0.63 0.65 0.78 0.82 1.26 1.49 1.04 0.93 0.95 1.10 1.26 1.21 1.02 0.98 1.05 1.18 1.34
1.38 1.32 1.39 1.60 1.52 1.65 1.65 1.63 1.48 1.33 1.32 1.28 1.21 1.15 0.92 0.87 1.03 1.26 1.41 1.52 1.74 2.03 2.07 1.29 1.13 1.05 1.02 0.96 0.77 0.66 0.81 0.96 1.21 1.08 0.77 0.78 0.96 1.16 1.41 1.53 1.34 1.16 1.11
1.09 1.04 1.21 1.30 1.25 1.46 1.66 1.65 1.54 1.40 1.39 1.55 1.66 1.73 1.55 1.37 1.34 1.34 1.57 1.46 1.46 1.63 1.72 1.36 1.06 0.90 0.86 0.89 0.92 0.88 0.84 0.74 0.70 0.94 1.12 0.89 0.86 1.00 1.14 1.45 1.98 1.96 1.66
1.51 1.46 1.65 1.72 1.45 1.33 1.57 1.64 1.63 1.46 1.48 1.58 1.46 1.46 1.38 1.38 1.47 1.38 1.47 1.62 1.37 1.18 1.39 1.63 1.33 1.11 0.97 0.89 0.91 0.92 0.86 0.87 0.79 0.99 1.08 1.15 1.06 0.90 1.06 1.20 1.37 1.53 1.55
1.09 1.21 1.16 1.22 1.23 1.17 1.25 1.44 1.60 1.69 1.40 1.40 1.41 1.44 1.53 1.37 1.18 1.04 1.02 1.07 1.09 1.11 1.11 1.29 1.46 1.40 1.34 1.28 1.34 1.15 0.98 0.94 0.99 0.91 0.99 0.95 0.96 0.96 1.11 1.32 1.33 1.22 1.15
1.01 0.94 0.77 0.88 0.97 1.09 1.43 1.36 1.42 1.58 1.54 1.38 1.24 1.22 1.23 1.52 1.48 1.30 1.19 1.23 1.16 1.28 1.35 1.41 1.45 1.27 1.27 1.32 1.30 1.31 1.26 1.31 1.29 1.01 0.92 0.96 0.94 1.00 1.08 1.25 1.34 1.36 1.36
1.04 1.24 1.03 1.09 1.36 1.43 1.74 1.72 1.62 1.72 1.61 1.50 1.40 1.26 1.40 1.57 1.50 1.67 1.51 1.36 1.35 1.43 1.44 1.33 1.37 1.42 1.26 1.11 1.15 1.28 1.56 1.73 1.69 1.30 1.38 1.51 1.45 1.53 1.45 1.46 1.88 1.62 1.41
1.40 1.29 1.51 1.43 1.33 1.30 1.73 1.74 1.86 1.66 1.99 1.89 1.76 1.55 1.49 1.54 1.69 1.48 1.75 1.75 1.75 1.83 1.65 1.41 1.44 1.42 1.40 1.31 1.41 1.58 1.68 1.76 1.82 1.52 1.66 1.99 1.81 1.80 1.68 1.79 2.08 1.61 1.57
1.49 1.22 1.20 1.16 1.14 1.71 1.79 2.15 2.44 2.10 1.81 1.87 2.00 1.90 1.78 1.67 1.86 1.83 1.72 1.79 1.82 1.97 2.12 2.16 2.22 2.42 2.45 2.33 2.39 2.48 2.55 2.66 2.69 2.38 2.08 2.16 1.84 1.77 1.65 1.62 2.10 1.48 1.38
1.94 1.71 1.31 1.19 1.23 1.21 1.29 1.14 1.33 1.53 2.05 2.36 2.29 2.32 2.42 2.35 3.04 2.95 2.51 2.68 2.84 3.01 3.48 3.44 3.31 3.27 3.14 2.89 2.56 2.46 2.88 2.87 3.01 2.62 2.23 2.19 2.10 2.08 2.05 1.90 1.73 1.67 1.30
1.52 1.50 1.49 1.28 1.43 1.28 1.64 1.35 1.10 0.74 0.99 1.31 1.64 1.98 2.60 2.26 2.67 2.46 2.22 2.18 2.76 3.24 3.04 3.14 3.24 3.08 2.90 2.83 3.02 2.76 2.51 2.55 2.57 2.73 2.31 2.32 2.19 2.19 2.41 2.00 1.61 1.43 1.28

GFSMA_prec_precacc_171.txt.gz
Total_Precipitation_Accumulation
0.73 0.46 0.28 0.34 0.39 0.45 0.68 0.92 1.20 1.20 1.23 1.17 1.26 1.16 0.94 0.74 0.85 1.00 1.09 1.42 1.30 1.11 1.12 1.03 0.78 0.84 0.68 0.62 0.65 0.67 0.58 0.47 0.48 0.50 0.44 0.36 0.42 0.48 0.45 0.35 0.28 0.20 0.26
0.70 0.57 0.38 0.36 0.35 0.39 0.55 0.80 1.16 1.27 1.34 1.52 1.29 0.96 0.94 0.67 0.67 1.06 1.75 1.84 1.42 1.36 1.13 1.26 1.44 1.26 1.03 0.92 0.86 0.77 0.59 0.48 0.46 0.41 0.46 0.47 0.47 0.50 0.43 0.36 0.35 0.32 0.27
0.66 0.71 0.69 0.63 0.51 0.47 0.56 0.84 1.12 1.26 1.05 1.00 1.09 1.32 1.55 1.46 0.89 0.59 0.73 0.86 0.91 0.95 1.04 1.37 1.55 1.74 1.88 1.66 1.25 0.93 0.79 0.53 0.44 0.42 0.40 0.38 0.39 0.37 0.39 0.38 0.37 0.37 0.38
1.11 0.93 0.70 0.77 0.89 0.77 0.68 0.82 1.06 1.61 1.49 1.09 0.74 0.75 1.03 1.16 1.04 1.09 0.82 0.66 0.64 0.79 1.17 1.01 1.77 2.43 2.27 1.64 1.13 0.95 0.63 0.55 0.56 0.62 0.71 0.64 0.50 0.42 0.38 0.35 0.44 0.56 0.48
1.72 1.33 1.24 1.33 1.27 1.29 1.36 1.60 1.80 1.93 1.54 1.22 0.88 0.66 0.62 0.59 0.47 0.43 0.45 0.46 0.45 0.44 0.44 0.55 0.78 1.06 0.93 0.87 0.74 0.64 0.57 0.47 0.48 0.61 0.78 0.86 0.74 0.66 0.61 0.52 0.54 0.58 0.58
1.05 1.14 1.36 1.60 1.59 1.46 1.19 0.99 1.09 1.24 1.23 1.08 0.98 0.69 0.62 0.43 0.32 0.23 0.24 0.34 0.37 0.52 0.51 0.42 0.57 0.63 0.58 0.57 0.63 0.63 0.57 0.61 0.60 0.60 0.71 0.84 0.98 0.96 0.93 0.86 0.85 0.90 0.82
0.94 0.84 1.13 1.97 2.14 1.36 0.90 0.94 1.21 1.21 1.09 0.96 1.31 1.03 0.74 0.48 0.33 0.22 0.18 0.25 0.26 0.32 0.63 0.66 0.48 0.56 0.68 0.48 0.40 0.51 0.65 0.80 0.85 0.80 0.92 0.95 0.96 1.06 1.12 1.11 0.97 1.16 1.16
0.76 0.88 0.69 0.82 1.40 1.71 1.55 1.09 1.08 1.35 1.24 1.18 1.29 1.23 1.10 1.09 0.65 0.36 0.33 0.22 0.20 0.29 0.27 0.42 0.54 0.43 0.54 0.77 0.40 0.34 0.63 0.91 1.00 1.04 1.33 1.47 1.22 1.14 1.24 1.36 1.45 1.38 1.49
0.75 0.79 0.74 0.67 0.81 1.47 1.55 1.17 0.82 0.95 1.35 1.30 1.19 1.17 1.11 0.76 0.54 0.34 0.34 0.26 0.21 0.20 0.23 0.24 0.27 0.33 0.31 0.59 0.90 0.47 0.32 0.65 0.97 1.10 1.20 1.65 1.76 1.26 1.06 1.12 1.32 1.37 1.31
0.95 0.80 0.92 0.96 0.83 0.81 1.15 1.14 0.92 0.84 1.33 1.22 1.75 1.18 0.77 0.73 0.99 0.75 0.53 0.46 0.43 0.29 0.24 0.33 0.35 0.27 0.30 0.33 0.49 0.69 0.35 0.21 0.45 0.78 1.22 1.53 1.56 1.42 1.31 1.21 1.04 1.12 1.25
1.17 1.18 1.13 1.25 1.22 1.29 0.96 1.45 1.37 1.26 1.39 1.08 0.64 0.95 1.21 1.04 1.27 1.39 0.94 0.60 0.68 0.50 0.43 0.41 0.59 0.45 0.41 0.48 0.45 0.38 0.38 0.38 0.38 0.49 0.61 0.82 1.17 1.21 1.07 1.41 1.96 1.60 1.30
1.24 1.22 1.20 1.18 1.06 1.10 1.25 1.45 1.81 1.78 1.79 1.56 1.15 1.07 1.01 1.00 0.77 1.16 1.30 0.87 0.79 0.70 0.66 1.02 0.89 0.77 0.68 0.67 0.69 0.63 0.51 0.57 0.64 0.51 0.40 0.59 0.89 1.14 1.29 1.22 1.28 1.99 2.21
1.46 0.97 1.05 1.04 0.95 0.78 0.88 1.19 1.61 1.80 2.14 2.23 2.03 1.62 1.26 1.11 1.08 1.17 1.27 1.16 1.07 0.74 0.75 0.86 0.84 0.83 0.89 1.02 0.94 0.98 0.94 0.86 0.95 1.05 0.90 0.83 0.81 0.93 1.33 1.31 1.27 1.48 1.89
1.02 0.79 0.96 1.09 1.06 1.07 1.06 0.97 1.13 1.15 1.25 1.64 2.36 2.90 2.91 2.22 1.82 1.89 1.98 2.16 2.14 1.70 1.43 0.86 0.60 0.63 0.60 0.77 0.88 1.28 1.19 1.14 1.12 1.17 1.13 1.04 0.93 0.87 0.96 1.37 1.76 1.77 1.81
1.05 0.98 1.10 1.13 1.16 1.09 1.07 1.07 1.00 1.03 1.08 1.12 1.12 1.33 1.65 1.84 1.83 1.70 1.80 2.16 2.77 2.45 1.72 1.25 0.73 0.51 0.44 0.58 0.76 0.98 0.98 1.02 1.13 1.08 1.14 1.14 1.12 1.14 1.08 1.04 1.20 1.50 1.72
1.09 1.25 1.32 1.25 1.27 1.31 1.31 1.29 1.20 1.13 1.23 1.12 0.99 0.95 1.01 1.08 1.12 1.14 1.26 1.61 2.14 2.30 1.87 1.15 0.92 0.62 0.64 0.66 0.81 0.85 1.27 1.50 1.09 1.09 1.04 1.16 1.30 1.24 1.06 1.04 1.11 1.25 1.40
1.38 1.32 1.39 1.60 1.52 1.65 1.65 1.63 1.48 1.33 1.32 1.28 1.21 1.15 0.92 0.87 1.03 1.26 1.41 1.52 1.75 2.03 2.08 1.32 1.14 1.06 1.03 0.96 0.78 0.69 0.83 0.97 1.23 1.24 0.93 0.82 1.00 1.21 1.44 1.57 1.38 1.21 1.18
1.09 1.04 1.21 1.30 1.25 1.46 1.66 1.65 1.54 1.40 1.39 1.55 1.66 1.73 1.55 1.37 1.34 1.34 1.57 1.46 1.46 1.64 1.73 1.37 1.07 0.91 0.87 0.90 0.93 0.89 0.86 0.75 0.71 0.96 1.19 0.99 0.93 1.05 1.18 1.49 2.02 1.99 1.69
1.51 1.46 1.65 1.72 1.45 1.33 1.57 1.64 1.63 1.46 1.48 1.58 1.46 1.46 1.38 1.38 1.47 1.38 1.47 1.62 1.37 1.18 1.40 1.64 1.34 1.12 0.97 0.90 0.92 0.92 0.87 0.88 0.80 0.99 1.08 1.18 1.21 1.07 1.18 1.29 1.42 1.58 1.59
1.09 1.21 1.16 1.22 1.23 1.17 1.25 1.44 1.60 1.69 1.40 1.40 1.41 1.44 1.53 1.37 1.18 1.04 1.02 1.07 1.09 1.11 1.11 1.29 1.46 1.40 1.34 1.28 1.35 1.17 0.99 0.94 1.00 0.91 0.99 0.95 0.96 1.00 1.18 1.44 1.51 1.34 1.25
1.01 0.94 0.77 0.88 0.97 1.09 1.43 1.36 1.42 1.58 1.54 1.38 1.24 1.22 1.23 1.52 1.48 1.30 1.19 1.23 1.16 1.28 1.35 1.41 1.45 1.27 1.27 1.32 1.30 1.31 1.27 1.33 1.29 1.02 0.92 0.96 0.94 1.00 1.09 1.25 1.38 1.46 1.48
1.04 1.24 1.03 1.09 1.36 1.43 1.74 1.72 1.62 1.72 1.61 1.50 1.40 1.26 1.40 1.57 1.50 1.67 1.51 1.36 1.35 1.43 1.44 1.33 1.37 1.42 1.26 1.11 1.15 1.28 1.56 1.74 1.70 1.30 1.40 1.52 1.45 1.53 1.45 1.46 1.88 1.64 1.45
1.40 1.29 1.51 1.43 1.33 1.30 1.73 1.74 1.86 1.66 1.99 1.89 1.76 1.55 1.49 1.54 1.69 1.48 1.75 1.75 1.75 1.83 1.65 1.41 1.44 1.43 1.41 1.31 1.41 1.58 1.68 1.76 1.82 1.52 1.66 2.01 1.81 1.80 1.68 1.79 2.08 1.61 1.58
1.49 1.22 1.20 1.16 1.14 1.71 1.79 2.15 2.44 2.10 1.81 1.87 2.00 1.90 1.78 1.67 1.86 1.83 1.72 1.79 1.82 1.97 2.12 2.16 2.22 2.42 2.45 2.33 2.39 2.48 2.55 2.66 2.69 2.38 2.08 2.17 1.86 1.77 1.65 1.62 2.11 1.49 1.38
1.94 1.71 1.31 1.19 1.23 1.21 1.29 1.14 1.33 1.53 2.05 2.36 2.29 2.32 2.42 2.35 3.04 2.95 2.51 2.68 2.84 3.01 3.48 3.44 3.31 3.27 3.14 2.89 2.56 2.46 2.88 2.87 3.01 2.62 2.23 2.19 2.11 2.10 2.05 1.90 1.73 1.67 1.30
1.52 1.50 1.49 1.28 1.43 1.28 1.64 1.35 1.10 0.74 0.99 1.31 1.64 1.98 2.60 2.26 2.67 2.46 2.22 2.18 2.76 3.24 3.04 3.14 3.24 3.08 2.90 2.83 3.02 2.76 2.51 2.55 2.57 2.73 2.31 2.32 2.19 2.20 2.44 2.01 1.61 1.43 1.28

GFSMA_prec_precacc_174.txt.gz
Total_Precipitation_Accumulation
0.73 0.46 0.28 0.34 0.39 0.45 0.68 0.92 1.20 1.20 1.23 1.17 1.26 1.16 0.94 0.74 0.85 1.00 1.09 1.42 1.30 1.11 1.12 1.03 0.78 0.84 0.68 0.62 0.65 0.67 0.58 0.47 0.48 0.50 0.44 0.37 0.44 0.53 0.53 0.49 0.47 0.34 0.30
0.70 0.57 0.38 0.36 0.35 0.39 0.55 0.80 1.16 1.27 1.34 1.52 1.29 0.96 0.94 0.67 0.67 1.06 1.75 1.84 1.42 1.36 1.13 1.26 1.44 1.26 1.03 0.92 0.86 0.77 0.59 0.49 0.47 0.41 0.46 0.47 0.47 0.52 0.46 0.42 0.46 0.46 0.40
0.66 0.71 0.69 0.63 0.51 0.47 0.56 0.84 1.12 1.26 1.05 1.00 1.09 1.32 1.55 1.46 0.89 0.59 0.73 0.86 0.91 0.95 1.04 1.37 1.55 1.74 1.88 1.66 1.25 0.93 0.79 0.54 0.44 0.43 0.40 0.39 0.40 0.38 0.41 0.41 0.44 0.48 0.51
1.11 0.93 0.70 0.77 0.89 0.77 0.68 0.82 1.06 1.61 1.49 1.09 0.74 0.75 1.03 1.16 1.04 1.09 0.82 0.66 0.64 0.79 1.17 1.01 1.77 2.43 2.27 1.64 1.13 0.95 0.64 0.57 0.57 0.63 0.72 0.64 0.50 0.43 0.40 0.38 0.48 0.63 0.62
1.72 1.33 1.24 1.33 1.27 1.29 1.36 1.60 1.80 1.93 1.54 1.22 0.88 0.66 0.62 0.59 0.47 0.43 0.45 0.46 0.45 0.44 0.44 0.55 0.78 1.06 0.93 0.88 0.74 0.65 0.58 0.48 0.50 0.62 0.80 0.87 0.74 0.66 0.62 0.54 0.59 0.65 0.68
1.05 1.14 1.36 1.60 1.59 1.46 1.19 0.99 1.09 1.24 1.23 1.08 0.98 0.69 0.62 0.43 0.32 0.23 0.24 0.34 0.37 0.52 0.51 0.42 0.57 0.63 0.58 0.57 0.63 0.65 0.58 0.63 0.63 0.62 0.73 0.86 0.99 0.96 0.93 0.88 0.89 0.97 0.91
0.94 0.84 1.13 1.97 2.14 1.36 0.90 0.94 1.21 1.21 1.09 0.96 1.31 1.03 0.74 0.48 0.33 0.22 0.18 0.25 0.26 0.32 0.63 0.66 0.48 0.56 0.69 0.49 0.40 0.52 0.68 0.83 0.87 0.83 0.93 0.97 0.97 1.06 1.12 1.11 0.99 1.24 1.25
0.76 0.88 0.69 0.82 1.40 1.71 1.55 1.09 1.08 1.35 1.24 1.18 1.29 1.23 1.10 1.09 0.65 0.36 0.33 0.22 0.20 0.29 0.27 0.42 0.54 0.44 0.54 0.77 0.41 0.35 0.64 0.92 1.03 1.07 1.35 1.49 1.23 1.15 1.24 1.36 1.46 1.41 1.61
0.75 0.79 0.74 0.67 0.81 1.47 1.55 1.17 0.82 0.95 1.35 1.30 1.19 1.17 1.11 0.76 0.54 0.34 0.34 0.26 0.21 0.20 0.23 0.24 0.28 0.33 0.31 0.59 0.90 0.48 0.33 0.66 0.98 1.13 1.24 1.68 1.79 1.28 1.07 1.13 1.33 1.38 1.36
0.95 0.80 0.92 0.96 0.83 0.81 1.15 1.14 0.92 0.84 1.33 1.22 1.75 1.18 0.77 0.73 0.99 0.75 0.53 0.46 0.43 0.29 0.24 0.34 0.36 0.28 0.30 0.33 0.50 0.70 0.36 0.22 0.46 0.79 1.24 1.56 1.59 1.46 1.35 1.24 1.05 1.13 1.26
1.17 1.18 1.13 1.25 1.22 1.29 0.96 1.45 1.37 1.26 1.39 1.08 0.64 0.95 1.21 1.04 1.27 1.39 0.94 0.60 0.68 0.50 0.43 0.42 0.60 0.46 0.41 0.48 0.45 0.39 0.39 0.38 0.40 0.51 0.62 0.85 1.19 1.22 1.09 1.46 2.01 1.62 1.31
1.24 1.22 1.20 1.18 1.06 1.10 1.25 1.45 1.81 1.78 1.79 1.56 1.15 1.07 1.01 1.00 0.77 1.16 1.30 0.87 0.79 0.70 0.66 1.03 0.89 0.78 0.68 0.67 0.69 0.63 0.52 0.58 0.65 0.52 0.42 0.62 0.91 1.17 1.32 1.23 1.32 2.03 2.24
1.46 0.97 1.05 1.04 0.95 0.78 0.88 1.19 1.61 1.80 2.14 2.23 2.03 1.62 1.26 1.11 1.08 1.18 1.27 1.16 1.07 0.74 0.75 0.87 0.85 0.83 0.90 1.02 0.94 0.98 0.94 0.87 0.95 1.06 0.92 0.86 0.85 0.99 1.37 1.33 1.28 1.50 1.91
1.02 0.79 0.96 1.09 1.06 1.07 1.06 0.97 1.13 1.15 1.25 1.64 2.36 2.90 2.91 2.22 1.82 1.89 1.99 2.17 2.14 1.70 1.43 0.86 0.60 0.63 0.61 0.78 0.88 1.28 1.19 1.15 1.12 1.17 1.15 1.06 0.98 0.94 1.01 1.41 1.80 1.80 1.84
1.05 0.98 1.10 1.13 1.16 1.09 1.07 1.07 1.00 1.03 1.08 1.12 1.12 1.33 1.65 1.84 1.83 1.70 1.80 2.16 2.78 2.45 1.72 1.26 0.74 0.52 0.44 0.59 0.77 0.99 0.99 1.03 1.14 1.10 1.17 1.19 1.17 1.19 1.12 1.07 1.25 1.55 1.77
1.09 1.25 1.32 1.25 1.27 1.31 1.31 1.29 1.20 1.13 1.23 1.12 0.99 0.95 1.01 1.08 1.12 1.14 1.26 1.61 2.14 2.31 1.87 1.16 0.92 0.62 0.64 0.66 0.81 0.86 1.27 1.50 1.09 1.14 1.15 1.29 1.38 1.30 1.10 1.08 1.17 1.33 1.47
1.38 1.32 1.39 1.60 1.52 1.65 1.65 1.63 1.48 1.33 1.32 1.28 1.21 1.15 0.92 0.87 1.03 1.26 1.41 1.52 1.75 2.03 2.08 1.32 1.15 1.06 1.03 0.96 0.78 0.69 0.83 0.97 1.23 1.25 0.98 0.88 1.03 1.27 1.52 1.62 1.43 1.31 1.34
1.09 1.04 1.21 1.30 1.25 1.46 1.66 1.65 1.54 1.40 1.39 1.55 1.66 1.73 1.55 1.37 1.34 1.34 1.57 1.46 1.46 1.64 1.74 1.38 1.07 0.91 0.87 0.91 0.93 0.89 0.86 0.75 0.71 0.96 1.19 1.00 0.95 1.06 1.21 1.56 2.09 2.03 1.73
1.51 1.46 1.65 1.72 1.45 1.33 1.57 1.64 1.63 1.46 1.48 1.58 1.46 1.46 1.38 1.38 1.47 1.38 1.47 1.62 1.37 1.18 1.40 1.64 1.34 1.12 0.98 0.90 0.92 0.93 0.87 0.88 0.80 0.99 1.08 1.18 1.22 1.07 1.20 1.30 1.44 1.60 1.61
1.09 1.21 1.16 1.22 1.23 1.17 1.25 1.44 1.60 1.69 1.40 1.40 1.41 1.44 1.53 1.37 1.18 1.04 1.02 1.07 1.09 1.11 1.11 1.29 1.46 1.40 1.34 1.28 1.35 1.17 1.00 0.95 1.00 0.91 0.99 0.95 0.96 1.00 1.18 1.44 1.54 1.39 1.27
1.01 0.94 0.77 0.88 0.97 1.09 1.43 1.36 1.42 1.58 1.54 1.38 1.24 1.22 1.23 1.52 1.48 1.30 1.19 1.23 1.16 1.28 1.35 1.41 1.45 1.27 1.27 1.33 1.31 1.31 1.27 1.34 1.30 1.02 0.92 0.96 0.94 1.00 1.09 1.25 1.39 1.52 1.56
1.04 1.24 1.03 1.09 1.36 1.43 1.74 1.72 1.62 1.72 1.61 1.50 1.40 1.26 1.40 1.57 1.50 1.67 1.51 1.36 1.35 1.43 1.44 1.33 1.37 1.42 1.26 1.11 1.15 1.29 1.56 1.74 1.70 1.30 1.40 1.52 1.45 1.53 1.45 1.46 1.88 1.64 1.48
1.40 1.29 1.51 1.43 1.33 1.30 1.73 1.74 1.86 1.66 1.99 1.89 1.76 1.55 1.49 1.54 1.69 1.48 1.75 1.75 1.75 1.83 1.65 1.41 1.44 1.43 1.41 1.31 1.41 1.58 1.68 1.76 1.82 1.52 1.67 2.01 1.81 1.80 1.68 1.80 2.09 1.62 1.58
1.49 1.22 1.20 1.16 1.14 1.71 1.79 2.15 2.44 2.10 1.81 1.87 2.00 1.90 1.78 1.67 1.86 1.83 1.72 1.79 1.82 1.97 2.12 2.16 2.22 2.42 2.45 2.33 2.39 2.48 2.55 2.66 2.69 2.38 2.08 2.18 1.87 1.77 1.65 1.62 2.11 1.49 1.39
1.94 1.71 1.31 1.19 1.23 1.21 1.29 1.14 1.33 1.53 2.05 2.36 2.29 2.32 2.42 2.35 3.04 2.95 2.51 2.68 2.84 3.01 3.48 3.44 3.31 3.27 3.14 2.89 2.56 2.46 2.88 2.88 3.01 2.62 2.23 2.19 2.12 2.10 2.05 1.90 1.73 1.67 1.30
1.52 1.50 1.49 1.28 1.43 1.28 1.64 1.35 1.10 0.74 0.99 1.31 1.64 1.98 2.60 2.26 2.67 2.46 2.22 2.18 2.76 3.24 3.04 3.14 3.24 3.08 2.90 2.83 3.02 2.76 2.51 2.55 2.57 2.73 2.31 2.33 2.20 2.21 2.44 2.01 1.61 1.43 1.28

GFSMA_prec_precacc_177.txt.gz
Total_Precipitation_Accumulation
0.73 0.46 0.28 0.34 0.39 0.45 0.68 0.92 1.20 1.20 1.23 1.17 1.26 1.16 0.94 0.74 0.85 1.00 1.09 1.42 1.30 1.11 1.12 1.03 0.78 0.84 0.68 0.62 0.65 0.67 0.58 0.47 0.48 0.50 0.44 0.37 0.44 0.53 0.53 0.51 0.52 0.44 0.47
0.70 0.57 0.38 0.36 0.35 0.39 0.55 0.80 1.16 1.27 1.34 1.52 1.29 0.96 0.94 0.67 0.67 1.06 1.75 1.84 1.42 1.36 1.13 1.26 1.44 1.26 1.03 0.92 0.86 0.77 0.59 0.49 0.47 0.41 0.46 0.47 0.47 0.52 0.47 0.43 0.48 0.51 0.49
0.66 0.71 0.69 0.63 0.51 0.47 0.56 0.84 1.12 1.26 1.05 1.00 1.09 1.32 1.55 1.46 0.89 0.59 0.73 0.86 0.91 0.95 1.04 1.37 1.55 1.74 1.88 1.66 1.25 0.93 0.80 0.55 0.45 0.44 0.41 0.39 0.40 0.38 0.41 0.42 0.44 0.51 0.56
1.11 0.93 0.70 0.77 0.89 0.77 0.68 0.82 1.06 1.61 1.49 1.09 0.74 0.75 1.03 1.16 1.04 1.09 0.82 0.66 0.64 0.79 1.17 1.01 1.77 2.43 2.27 1.65 1.14 0.96 0.65 0.58 0.58 0.64 0.73 0.65 0.51 0.43 0.40 0.38 0.49 0.64 0.64
1.72 1.33 1.24 1.33 1.27 1.29 1.36 1.60 1.80 1.93 1.54 1.22 0.88 0.66 0.62 0.59 0.47 0.43 0.45 0.46 0.45 0.44 0.44 0.55 0.78 1.06 0.94 0.88 0.75 0.67 0.60 0.51 0.52 0.64 0.81 0.88 0.75 0.67 0.62 0.55 0.59 0.66 0.69
1.05 1.14 1.36 1.60 1.59 1.46 1.19 0.99 1.09 1.24 1.23 1.08 0.98 0.69 0.62 0.43 0.32 0.23 0.24 0.34 0.37 0.52 0.51 0.42 0.57 0.63 0.58 0.57 0.64 0.66 0.61 0.66 0.65 0.65 0.75 0.88 1.01 0.98 0.94 0.89 0.90 0.97 0.93
0.94 0.84 1.13 1.97 2.14 1.36 0.90 0.94 1.21 1.21 1.09 0.96 1.31 1.03 0.74 0.48 0.33 0.22 0.18 0.25 0.26 0.32 0.63 0.66 0.48 0.56 0.69 0.49 0.41 0.53 0.69 0.84 0.89 0.85 0.96 0.99 0.99 1.08 1.13 1.11 1.00 1.24 1.26
0.76 0.88 0.69 0.82 1.40 1.71 1.55 1.09 1.08 1.35 1.24 1.18 1.29 1.23 1.10 1.09 0.65 0.36 0.33 0.22 0.20 0.29 0.27 0.42 0.54 0.44 0.54 0.77 0.41 0.36 0.64 0.93 1.04 1.09 1.38 1.52 1.26 1.18 1.26 1.37 1.46 1.41 1.61
0.75 0.79 0.74 0.67 0.81 1.47 1.55 1.17 0.82 0.95 1.35 1.30 1.19 1.17 1.11 0.76 0.54 0.34 0.34 0.26 0.21 0.20 0.23 0.24 0.28 0.33 0.31 0.59 0.90 0.48 0.33 0.66 0.99 1.15 1.26 1.71 1.82 1.31 1.10 1.15 1.35 1.39 1.37
0.95 0.80 0.92 0.96 0.83 0.81 1.15 1.14 0.92 0.84 1.33 1.22 1.75 1.18 0.77 0.73 0.99 0.75 0.53 0.46 0.43 0.29 0.24 0.35 0.36 0.28 0.30 0.33 0.50 0.70 0.37 0.23 0.47 0.80 1.26 1.58 1.62 1.48 1.38 1.28 1.09 1.17 1.28
1.17 1.18 1.13 1.25 1.22 1.29 0.96 1.45 1.37 1.26 1.39 1.08 0.64 0.95 1.21 1.04 1.27 1.39 0.94 0.60 0.68 0.50 0.43 0.43 0.60 0.46 0.41 0.48 0.45 0.39 0.39 0.39 0.40 0.52 0.64 0.87 1.22 1.25 1.10 1.48 2.03 1.66 1.34
1.24 1.22 1.20 1.18 1.06 1.10 1.25 1.45 1.81 1.78 1.79 1.56 1.15 1.07 1.01 1.00 0.77 1.16 1.30 0.87 0.79 0.70 0.67 1.03 0.89 0.78 0.69 0.67 0.70 0.64 0.53 0.59 0.65 0.53 0.43 0.64 0.94 1.20 1.37 1.28 1.36 2.06 2.28
1.46 0.97 1.05 1.04 0.95 0.78 0.88 1.19 1.61 1.80 2.14 2.23 2.03 1.62 1.26 1.11 1.08 1.18 1.27 1.16 1.07 0.74 0.75 0.87 0.85 0.83 0.90 1.02 0.94 0.98 0.94 0.88 0.96 1.07 0.93 0.89 0.87 1.02 1.45 1.43 1.34 1.52 1.92
1.02 0.79 0.96 1.09 1.06 1.07 1.06 0.97 1.13 1.15 1.25 1.64 2.36 2.90 2.91 2.22 1.82 1.89 1.99 2.17 2.14 1.70 1.43 0.86 0.60 0.63 0.62 0.78 0.89 1.29 1.19 1.15 1.13 1.19 1.17 1.09 1.02 0.99 1.10 1.48 1.85 1.83 1.86
1.05 0.98 1.10 1.13 1.16 1.09 1.07 1.07 1.00 1.03 1.08 1.12 1.12 1.33 1.65 1.84 1.83 1.70 1.80 2.16 2.78 2.45 1.72 1.26 0.74 0.52 0.44 0.59 0.77 0.99 0.99 1.03 1.14 1.11 1.20 1.27 1.25 1.24 1.23 1.15 1.29 1.60 1.83
1.09 1.25 1.32 1.25 1.27 1.31 1.31 1.29 1.20 1.13 1.23 1.12 0.99 0.95 1.01 1.08 1.12 1.14 1.26 1.61 2.14 2.31 1.87 1.16 0.92 0.62 0.64 0.66 0.81 0.86 1.27 1.50 1.09 1.14 1.16 1.36 1.44 1.35 1.14 1.13 1.23 1.43 1.53
1.38 1.32 1.39 1.60 1.52 1.65 1.65 1.63 1.48 1.33 1.32 1.28 1.21 1.15 0.92 0.87 1.03 1.26 1.41 1.52 1.75 2.04 2.08 1.33 1.15 1.06 1.03 0.96 0.78 0.69 0.83 0.97 1.23 1.25 0.99 0.89 1.04 1.29 1.54 1.64 1.47 1.39 1.61
1.09 1.04 1.21 1.30 1.25 1.46 1.66 1.65 1.54 1.40 1.39 1.55 1.66 1.73 1.55 1.37 1.34 1.34 1.57 1.46 1.46 1.64 1.74 1.38 1.07 0.91 0.87 0.91 0.94 0.89 0.86 0.75 0.71 0.96 1.19 1.00 0.95 1.07 1.21 1.58 2.13 2.04 1.81
1.51 1.46 1.65 1.72 1.45 1.33 1.57 1.64 1.63 1.46 1.48 1.58 1.46 1.46 1.38 1.38 1.47 1.38 1.47 1.62 1.37 1.18 1.40 1.64 1.34 1.12 0.98 0.90 0.92 0.93 0.87 0.88 0.80 0.99 1.08 1.18 1.22 1.08 1.20 1.31 1.45 1.60 1.62
1.09 1.22 1.16 1.22 1.23 1.17 1.25 1.44 1.60 1.69 1.40 1.40 1.41 1.44 1.53 1.37 1.18 1.04 1.02 1.07 1.09 1.11 1.11 1.29 1.46 1.40 1.34 1.28 1.35 1.17 1.00 0.95 1.00 0.91 0.99 0.95 0.96 1.01 1.18 1.45 1.55 1.40 1.28
1.03 0.95 0.78 0.88 0.97 1.09 1.43 1.36 1.42 1.58 1.54 1.38 1.24 1.22 1.23 1.52 1.48 1.30 1.19 1.23 1.16 1.28 1.35 1.41 1.45 1.27 1.27 1.33 1.31 1.31 1.27 1.35 1.30 1.02 0.92 0.96 0.94 1.00 1.09 1.26 1.40 1.53 1.56
1.07 1.25 1.03 1.09 1.36 1.43 1.74 1.72 1.62 1.72 1.61 1.50 1.40 1.26 1.40 1.57 1.50 1.67 1.51 1.36 1.35 1.43 1.44 1.33 1.37 1.42 1.26 1.11 1.15 1.29 1.56 1.74 1.70 1.30 1.40 1.52 1.45 1.53 1.46 1.46 1.89 1.66 1.49
1.41 1.30 1.51 1.43 1.33 1.30 1.73 1.74 1.86 1.66 1.99 1.89 1.76 1.55 1.49 1.54 1.69 1.48 1.75 1.75 1.75 1.83 1.65 1.41 1.44 1.43 1.41 1.31 1.41 1.58 1.68 1.76 1.82 1.52 1.67 2.01 1.81 1.80 1.68 1.80 2.09 1.63 1.60
1.53 1.25 1.20 1.16 1.14 1.71 1.79 2.15 2.44 2.10 1.81 1.87 2.00 1.90 1.78 1.67 1.86 1.83 1.72 1.79 1.82 1.97 2.12 2.16 2.22 2.42 2.45 2.33 2.39 2.48 2.55 2.66 2.69 2.38 2.08 2.18 1.87 1.77 1.65 1.62 2.11 1.49 1.41
2.04 1.77 1.33 1.19 1.23 1.21 1.29 1.14 1.33 1.53 2.05 2.36 2.29 2.32 2.42 2.35 3.04 2.95 2.51 2.68 2.84 3.01 3.48 3.44 3.31 3.27 3.14 2.89 2.56 2.46 2.88 2.88 3.01 2.62 2.23 2.19 2.12 2.11 2.05 1.90 1.73 1.67 1.30
1.61 1.55 1.50 1.28 1.43 1.28 1.64 1.35 1.10 0.74 0.99 1.31 1.64 1.98 2.60 2.26 2.67 2.46 2.22 2.18 2.76 3.24 3.04 3.14 3.24 3.08 2.90 2.83 3.02 2.76 2.51 2.55 2.57 2.73 2.31 2.33 2.20 2.22 2.45 2.01 1.61 1.43 1.28

GFSMA_prec_precacc_180.txt.gz
Total_Precipitation_Accumulation
0.73 0.46 0.28 0.34 0.39 0.45 0.68 0.92 1.20 1.20 1.23 1.17 1.26 1.16 0.94 0.74 0.85 1.00 1.09 1.42 1.30 1.11 1.12 1.03 0.78 0.84 0.68 0.62 0.65 0.67 0.58 0.47 0.49 0.51 0.44 0.37 0.44 0.53 0.53 0.51 0.52 0.45 0.50
0.70 0.57 0.38 0.36 0.35 0.39 0.55 0.80 1.16 1.27 1.34 1.52 1.29 0.96 0.94 0.67 0.67 1.06 1.75 1.84 1.42 1.36 1.13 1.26 1.44 1.26 1.03 0.92 0.86 0.77 0.60 0.50 0.48 0.42 0.47 0.47 0.47 0.52 0.47 0.43 0.48 0.51 0.49
0.66 0.71 0.69 0.63 0.51 0.47 0.56 0.84 1.12 1.26 1.05 1.00 1.09 1.32 1.55 1.46 0.89 0.59 0.73 0.86 0.91 0.95 1.04 1.37 1.55 1.74 1.88 1.66 1.26 0.94 0.81 0.56 0.46 0.45 0.42 0.40 0.41 0.39 0.42 0.42 0.44 0.51 0.57
1.11 0.93 0.70 0.77 0.89 0.77 0.68 0.82 1.06 1.61 1.49 1.09 0.74 0.75 1.03 1.16 1.04 1.09 0.82 0.66 0.64 0.79 1.17 1.01 1.77 2.43 2.27 1.65 1.15 0.98 0.67 0.60 0.60 0.66 0.74 0.66 0.52 0.44 0.41 0.38 0.49 0.64 0.64
1.72 1.33 1.24 1.33 1.27 1.29 1.36 1.60 1.80 1.93 1.54 1.22 0.88 0.66 0.62 0.59 0.47 0.43 0.45 0.46 0.45 0.44 0.44 0.55 0.78 1.06 0.94 0.89 0.76 0.68 0.62 0.52 0.54 0.66 0.83 0.89 0.76 0.68 0.64 0.56 0.60 0.66 0.70
1.05 1.14 1.36 1.60 1.59 1.46 1.19 0.99 1.09 1.24 1.23 1.08 0.98 0.69 0.62 0.43 0.32 0.23 0.24 0.34 0.37 0.52 0.51 0.42 0.57 0.63 0.58 0.57 0.64 0.67 0.62 0.67 0.66 0.66 0.77 0.90 1.03 1.00 0.96 0.90 0.91 0.98 0.93
0.94 0.84 1.13 1.97 2.14 1.36 0.90 0.94 1.21 1.21 1.09 0.96 1.31 1.03 0.74 0.48 0.33 0.22 0.18 0.25 0.26 0.32 0.63 0.66 0.48 0.56 0.69 0.49 0.41 0.54 0.70 0.85 0.90 0.86 0.97 1.01 1.01 1.09 1.14 1.13 1.01 1.25 1.27
0.76 0.88 0.69 0.82 1.40 1.71 1.55 1.09 1.08 1.35 1.24 1.18 1.29 1.23 1.10 1.09 0.65 0.36 0.33 0.22 0.20 0.29 0.27 0.42 0.54 0.44 0.54 0.77 0.41 0.36 0.65 0.93 1.05 1.10 1.40 1.53 1.27 1.20 1.29 1.40 1.49 1.43 1.63
0.75 0.79 0.74 0.67 0.81 1.47 1.55 1.17 0.82 0.95 1.35 1.30 1.19 1.17 1.11 0.76 0.54 0.34 0.34 0.26 0.21 0.20 0.23 0.25 0.28 0.33 0.31 0.59 0.90 0.49 0.34 0.67 1.00 1.17 1.28 1.73 1.84 1.34 1.13 1.19 1.38 1.41 1.39
0.95 0.80 0.92 0.96 0.83 0.81 1.15 1.14 0.92 0.84 1.33 1.22 1.75 1.18 0.77 0.73 0.99 0.75 0.53 0.46 0.43 0.29 0.24 0.35 0.36 0.28 0.30 0.33 0.50 0.71 0.38 0.23 0.47 0.81 1.27 1.60 1.64 1.51 1.40 1.31 1.11 1.18 1.30
1.17 1.18 1.13 1.25 1.22 1.29 0.96 1.45 1.37 1.26 1.39 1.08 0.64 0.95 1.21 1.04 1.27 1.39 0.94 0.60 0.68 0.50 0.44 0.43 0.60 0.46 0.41 0.48 0.45 0.40 0.40 0.39 0.41 0.52 0.65 0.89 1.24 1.28 1.13 1.50 2.05 1.68 1.36
1.24 1.22 1.20 1.18 1.06 1.10 1.25 1.45 1.81 1.78 1.79 1.56 1.15 1.07 1.01 1.00 0.77 1.16 1.30 0.87 0.79 0.70 0.67 1.03 0.89 0.78 0.69 0.67 0.70 0.64 0.53 0.59 0.66 0.54 0.44 0.66 0.97 1.23 1.40 1.32 1.40 2.10 2.33
1.46 0.97 1.05 1.04 0.95 0.78 0.88 1.19 1.61 1.80 2.14 2.23 2.03 1.62 1.26 1.11 1.08 1.18 1.27 1.16 1.07 0.74 0.75 0.87 0.85 0.83 0.90 1.02 0.95 0.99 0.94 0.88 0.96 1.07 0.94 0.90 0.90 1.05 1.48 1.50 1.43 1.60 2.01
1.02 0.79 0.96 1.09 1.06 1.07 1.06 0.97 1.13 1.15 1.25 1.64 2.36 2.90 2.91 2.22 1.82 1.89 1.99 2.17 2.14 1.70 1.43 0.86 0.60 0.63 0.62 0.78 0.89 1.29 1.19 1.15 1.13 1.19 1.17 1.10 1.05 1.02 1.15 1.63 1.93 1.90 1.90
1.05 0.98 1.10 1.13 1.16 1.09 1.07 1.07 1.00 1.03 1.08 1.12 1.12 1.33 1.65 1.84 1.83 1.70 1.80 2.16 2.78 2.46 1.72 1.26 0.74 0.52 0.44 0.59 0.77 0.99 0.99 1.03 1.14 1.11 1.20 1.28 1.27 1.26 1.27 1.21 1.34 1.63 1.88
1.09 1.25 1.32 1.25 1.27 1.31 1.31 1.29 1.20 1.13 1.23 1.12 0.99 0.95 1.01 1.08 1.12 1.14 1.26 1.61 2.14 2.31 1.87 1.16 0.93 0.62 0.64 0.66 0.81 0.86 1.27 1.50 1.09 1.14 1.16 1.36 1.45 1.36 1.16 1.15 1.25 1.48 1.58
1.38 1.32 1.39 1.60 1.52 1.65 1.65 1.63 1.48 1.33 1.32 1.28 1.21 1.15 0.92 0.87 1.03 1.26 1.41 1.52 1.75 2.04 2.08 1.33 1.15 1.06 1.03 0.96 0.78 0.69 0.83 0.97 1.23 1.25 0.99 0.89 1.04 1.29 1.55 1.65 1.48 1.42 1.65
1.09 1.04 1.21 1.30 1.25 1.46 1.66 1.65 1.54 1.40 1.39 1.55 1.66 1.73 1.55 1.37 1.34 1.34 1.57 1.46 1.46 1.64 1.74 1.38 1.07 0.91 0.87 0.91 0.94 0.89 0.86 0.75 0.71 0.96 1.20 1.00 0.96 1.07 1.22 1.59 2.14 2.05 1.84
1.51 1.46 1.65 1.72 1.45 1.33 1.57 1.64 1.63 1.46 1.48 1.58 1.46 1.46 1.38 1.38 1.47 1.38 1.47 1.62 1.37 1.18 1.40 1.64 1.34 1.12 0.98 0.90 0.92 0.93 0.87 0.88 0.80 0.99 1.08 1.19 1.22 1.08 1.21 1.32 1.46 1.61 1.62
1.09 1.22 1.17 1.22 1.23 1.17 1.25 1.44 1.60 1.69 1.40 1.40 1.41 1.44 1.53 1.37 1.18 1.04 1.02 1.07 1.09 1.11 1.11 1.29 1.46 1.40 1.34 1.28 1.35 1.17 1.00 0.95 1.00 0.91 0.99 0.95 0.96 1.01 1.19 1.46 1.56 1.40 1.29
1.03 0.95 0.78 0.88 0.97 1.09 1.43 1.36 1.42 1.58 1.54 1.38 1.24 1.22 1.23 1.52 1.48 1.30 1.19 1.23 1.16 1.28 1.35 1.41 1.45 1.27 1.27 1.33 1.31 1.31 1.28 1.35 1.30 1.02 0.92 0.96 0.94 1.00 1.09 1.26 1.41 1.54 1.57
1.07 1.25 1.04 1.09 1.36 1.43 1.74 1.72 1.62 1.72 1.61 1.50 1.40 1.26 1.40 1.57 1.50 1.67 1.51 1.36 1.35 1.43 1.44 1.33 1.37 1.42 1.26 1.11 1.16 1.29 1.56 1.74 1.70 1.30 1.40 1.52 1.45 1.53 1.46 1.47 1.90 1.67 1.50
1.42 1.30 1.53 1.44 1.33 1.30 1.73 1.74 1.86 1.66 1.99 1.89 1.76 1.55 1.49 1.54 1.69 1.48 1.75 1.75 1.75 1.83 1.65 1.41 1.44 1.43 1.41 1.31 1.41 1.58 1.68 1.76 1.82 1.52 1.67 2.01 1.81 1.80 1.68 1.80 2.10 1.64 1.60
1.55 1.26 1.22 1.18 1.15 1.72 1.79 2.15 2.44 2.10 1.81 1.87 2.00 1.90 1.78 1.67 1.86 1.83 1.72 1.79 1.82 1.97 2.12 2.16 2.22 2.42 2.45 2.33 2.39 2.48 2.55 2.66 2.69 2.38 2.08 2.18 1.87 1.77 1.65 1.62 2.11 1.50 1.41
2.08 1.82 1.38 1.22 1.25 1.22 1.29 1.14 1.33 1.53 2.05 2.36 2.29 2.32 2.42 2.35 3.04 2.95 2.51 2.68 2.84 3.01 3.48 3.44 3.31 3.27 3.14 2.89 2.56 2.46 2.88 2.88 3.01 2.62 2.23 2.19 2.13 2.11 2.05 1.90 1.73 1.67 1.30
1.69 1.70 1.65 1.37 1.46 1.28 1.64 1.35 1.10 0.74 0.99 1.31 1.64 1.98 2.60 2.26 2.67 2.46 2.22 2.18 2.76 3.24 3.04 3.14 3.24 3.08 2.90 2.83 3.02 2.76 2.51 2.55 2.57 2.73 2.31 2.33 2.20 2.22 2.45 2.01 1.61 1.43 1.28